Drummond Island, MI

7:07 AM EDT on September 30, 2016 (GMT -0400)
Drummond Island

Weather History for KDRM - January, 2013

Change the Weather History Date:

Wednesday, January 23, 2013

  Actual Average (KCIU) Record (KCIU)
Temperature  
Mean Temperature -3 °F -  
Max Temperature 8 °F 26 °F 41 °F (1999)
Min Temperature -14 °F 5 °F -16 °F (2004)
Degree Days  
Heating Degree Days 68    
Moisture  
Dew Point -3 °F    
Average Humidity 82    
Maximum Humidity 88    
Minimum Humidity 72    
Precipitation  
Precipitation 0.00 in - - ()
Sea Level Pressure  
Sea Level Pressure 30.08 in    
Wind  
Wind Speed 1 mph (NE)    
Max Wind Speed 6 mph    
Max Gust Speed -    
Visibility 9 miles    
Events Snow    
Averages and records for this station are not official NWS values.
T = Trace of Precipitation, MM = Missing Value Source: NWS Daily Summary

Daily Weather History Graph

Daily Weather History Graph

Search for Another Location

Airport or City:

Trip Planner

Search our weather history database for the weather conditions in past years. The results will help you decide how hot, cold, wet, or windy it might be!

Date:

Astronomy

Jan. 23, 2013 Rise Set
Actual Time 8:06 AM EST 5:27 PM EST
Civil Twilight 7:33 AM EST 6:00 PM EST
Nautical Twilight 6:57 AM EST 6:36 PM EST
Astronomical Twilight 6:22 AM EST 7:12 PM EST
Moon 2:34 PM EST (1/23) 5:20 AM EST (1/23)
Length of Visible Light 10h 26m
Length of Day
9h 21m
Waxing Gibbous, 89% of the Moon is Illuminated
Jan 23
Waxing Gibbous
Jan 26
Full
Feb 3
Last Quarter
Feb 10
New
Feb 17
First Quarter

Hourly Weather History & Observations

Time (EST) Temp. Windchill Dew Point Humidity Pressure Visibility Wind Dir Wind Speed Gust Speed Precip Events Conditions
12:16 AM -13.5 °F - -17.9 °F 81% 30.14 in 10.0 mi Calm Calm - N/A   Overcast
12:36 AM -13.5 °F - -17.7 °F 82% 30.14 in 10.0 mi Calm Calm - N/A   Overcast
12:55 AM -14.3 °F - -18.4 °F 82% 30.14 in 10.0 mi Calm Calm - N/A   Overcast
1:16 AM -13.2 °F - -17.7 °F 80% 30.13 in 10.0 mi Calm Calm - N/A   Overcast
1:35 AM -11.6 °F - -15.9 °F 81% 30.13 in 10.0 mi Calm Calm - N/A   Overcast
1:56 AM -10.3 °F - -14.8 °F 81% 30.14 in 10.0 mi Calm Calm - N/A   Overcast
2:16 AM -8.7 °F - -13.0 °F 81% 30.14 in 10.0 mi Calm Calm - N/A   Overcast
2:35 AM -5.6 °F - -10.1 °F 81% 30.14 in 10.0 mi Calm Calm - N/A   Overcast
2:56 AM -4.9 °F - -8.7 °F 84% 30.13 in 10.0 mi Calm Calm - N/A   Overcast
3:16 AM -5.1 °F - -9.0 °F 83% 30.13 in 10.0 mi Calm Calm - N/A   Overcast
3:35 AM -3.1 °F - -7.2 °F 82% 30.13 in 10.0 mi Calm Calm - N/A   Overcast
3:56 AM -2.9 °F - -7.1 °F 82% 30.12 in 10.0 mi Calm Calm - N/A   Overcast
4:15 AM -3.1 °F - -6.9 °F 84% 30.12 in 10.0 mi Calm Calm - N/A   Overcast
4:35 AM -2.6 °F -12.9 °F -6.7 °F 82% 30.11 in 10.0 mi North 4.6 mph - N/A   Overcast
4:56 AM -1.5 °F -9.5 °F -6.2 °F 80% 30.10 in 10.0 mi NNW 3.5 mph - N/A   Overcast
5:15 AM -1.3 °F - -6.2 °F 80% 30.10 in 10.0 mi Calm Calm - N/A   Overcast
5:35 AM -2.0 °F - -6.2 °F 83% 30.09 in 10.0 mi Calm Calm - N/A   Overcast
5:56 AM -2.0 °F - -6.7 °F 80% 30.09 in 10.0 mi Calm Calm - N/A   Overcast
6:15 AM -3.1 °F - -6.7 °F 85% 30.08 in 10.0 mi Calm Calm - N/A   Overcast
6:35 AM -2.6 °F - -6.7 °F 82% 30.08 in 10.0 mi Calm Calm - N/A   Overcast
6:56 AM -2.0 °F - -5.8 °F 84% 30.08 in 10.0 mi Calm Calm - N/A   Overcast
7:15 AM -1.5 °F - -5.1 °F 85% 30.08 in 7.0 mi Calm Calm - N/A   Overcast
7:36 AM -1.3 °F -9.3 °F -4.9 °F 85% 30.08 in 5.0 mi ESE 3.5 mph - N/A Snow Light Snow
7:56 AM -1.3 °F -9.3 °F -4.9 °F 85% 30.06 in 4.0 mi ESE 3.5 mph - N/A   Overcast
8:15 AM -1.1 °F -9.1 °F -4.4 °F 86% 30.06 in 4.0 mi ESE 3.5 mph - N/A   Overcast
8:36 AM -0.8 °F - -4.0 °F 86% 30.06 in 10.0 mi Calm Calm - N/A   Overcast
8:56 AM -0.0 °F -7.9 °F -3.3 °F 86% 30.06 in 4.0 mi ESE 3.5 mph - N/A Snow Light Snow
9:15 AM 1.4 °F - -2.0 °F 86% 30.06 in 2.0 mi Calm Calm - N/A Snow Light Snow
9:36 AM 1.9 °F - -1.7 °F 85% 30.06 in 2.0 mi Calm Calm - N/A Snow Light Snow
9:55 AM 2.1 °F - -1.3 °F 86% 30.06 in 2.0 mi Calm Calm - N/A Snow Light Snow
10:16 AM 3.0 °F - -0.8 °F 84% 30.06 in 10.0 mi Calm Calm - N/A   Overcast
10:36 AM 4.1 °F - -0.2 °F 82% 30.06 in 10.0 mi Calm Calm - N/A   Overcast
10:55 AM 4.6 °F - 0.1 °F 82% 30.05 in 10.0 mi Calm Calm - N/A   Overcast
11:16 AM 5.4 °F - 0.5 °F 80% 30.05 in 10.0 mi Calm Calm - N/A   Overcast
11:35 AM 7.2 °F - 0.9 °F 75% 30.05 in 10.0 mi Calm Calm - N/A   Overcast
11:56 AM 7.7 °F - 0.3 °F 72% 30.04 in 10.0 mi Calm Calm - N/A   Overcast
12:15 PM 8.2 °F - 2.1 °F 76% 30.03 in 10.0 mi Calm Calm - N/A   Overcast
12:35 PM 8.1 °F - 2.1 °F 77% 30.03 in 10.0 mi Calm Calm - N/A   Overcast
12:56 PM 8.4 °F - 2.1 °F 76% 30.02 in 10.0 mi Calm Calm - N/A   Overcast
1:15 PM 8.6 °F 2.0 °F 2.3 °F 76% 30.01 in 10.0 mi NNE 3.5 mph - N/A   Overcast
1:36 PM 8.4 °F - 2.3 °F 76% 30.00 in 10.0 mi Calm Calm - N/A   Mostly Cloudy
1:56 PM 8.4 °F 1.8 °F 1.9 °F 75% 30.00 in 10.0 mi NE 3.5 mph - N/A   Mostly Cloudy
2:16 PM 8.6 °F 0.1 °F 2.3 °F 76% 29.99 in 10.0 mi ENE 4.6 mph - N/A   Overcast
2:35 PM 8.2 °F 1.6 °F 2.3 °F 77% 29.99 in 10.0 mi ENE 3.5 mph - N/A   Mostly Cloudy
2:56 PM 8.4 °F 1.8 °F 2.3 °F 76% 29.99 in 10.0 mi ENE 3.5 mph - N/A   Mostly Cloudy
3:15 PM 8.1 °F -2.0 °F 2.3 °F 77% 29.99 in 10.0 mi NE 5.8 mph - N/A   Overcast
3:35 PM 7.2 °F 0.3 °F 2.3 °F 80% 30.00 in 10.0 mi ENE 3.5 mph - N/A   Overcast
3:56 PM 6.8 °F -0.1 °F 2.1 °F 81% 30.00 in 10.0 mi ENE 3.5 mph - N/A   Overcast
4:15 PM 6.4 °F - 1.9 °F 82% 30.01 in 10.0 mi Calm Calm - N/A   Overcast
4:36 PM 6.4 °F -0.5 °F 1.6 °F 80% 30.01 in 10.0 mi NE 3.5 mph - N/A   Overcast
4:55 PM 6.1 °F -2.8 °F 1.9 °F 83% 30.02 in 10.0 mi NE 4.6 mph - N/A   Overcast
5:16 PM 5.9 °F -1.1 °F 2.1 °F 84% 30.02 in 10.0 mi ENE 3.5 mph - N/A   Overcast
5:36 PM 5.9 °F -3.0 °F 2.1 °F 84% 30.03 in 10.0 mi ENE 4.6 mph - N/A   Overcast
5:55 PM 5.9 °F -4.5 °F 2.3 °F 85% 30.04 in 10.0 mi ENE 5.8 mph - N/A   Overcast
6:16 PM 5.9 °F -3.0 °F 2.1 °F 84% 30.05 in 10.0 mi East 4.6 mph - N/A   Overcast
6:35 PM 5.9 °F -3.0 °F 1.8 °F 83% 30.05 in 10.0 mi ENE 4.6 mph - N/A   Overcast
6:56 PM 5.9 °F -3.0 °F 1.6 °F 82% 30.06 in 10.0 mi ENE 4.6 mph - N/A   Overcast
7:16 PM 6.1 °F -2.8 °F 1.8 °F 82% 30.06 in 10.0 mi NE 4.6 mph - N/A   Overcast
7:35 PM 5.9 °F -4.5 °F 1.9 °F 84% 30.07 in 10.0 mi NE 5.8 mph - N/A   Overcast
7:56 PM 5.7 °F -1.3 °F 1.9 °F 84% 30.08 in 10.0 mi NE 3.5 mph - N/A   Overcast
8:15 PM 5.5 °F -1.5 °F 2.3 °F 86% 30.09 in 7.0 mi NNE 3.5 mph - N/A   Overcast
8:35 PM 5.5 °F -1.5 °F 2.3 °F 86% 30.09 in 10.0 mi NNE 3.5 mph - N/A   Overcast
8:56 PM 5.0 °F -2.1 °F 2.1 °F 88% 30.11 in 10.0 mi NNE 3.5 mph - N/A   Overcast
9:15 PM 5.0 °F -2.1 °F 1.9 °F 87% 30.12 in 10.0 mi NNE 3.5 mph - N/A   Overcast
9:36 PM 4.6 °F -2.5 °F 1.0 °F 85% 30.13 in 10.0 mi North 3.5 mph - N/A   Overcast
9:56 PM 4.6 °F -4.5 °F 0.1 °F 82% 30.14 in 10.0 mi NNE 4.6 mph - N/A   Overcast
10:15 PM 4.3 °F -4.9 °F -0.4 °F 81% 30.15 in 10.0 mi North 4.6 mph - N/A   Overcast
10:36 PM 3.9 °F -5.3 °F -0.9 °F 80% 30.17 in 10.0 mi NNE 4.6 mph - N/A   Overcast
10:56 PM 3.2 °F -7.8 °F -1.3 °F 82% 30.18 in 10.0 mi North 5.8 mph - N/A   Scattered Clouds
11:15 PM 2.3 °F -7.2 °F -1.7 °F 84% 30.19 in 10.0 mi North 4.6 mph - N/A   Clear
11:36 PM 1.9 °F -9.2 °F -2.2 °F 83% 30.20 in 10.0 mi North 5.8 mph - N/A   Clear
11:55 PM 1.0 °F -10.3 °F -3.1 °F 83% 30.22 in 10.0 mi North 5.8 mph - N/A   Clear